#datetime,building,power
2022-11-18T00:02:00,pkn,1.20
2022-11-18T00:03:00,pkn,1.20
2022-11-18T00:05:00,pkn,1.20
2022-11-18T00:07:00,pkn,2.40
2022-11-18T00:11:00,pkn,1.20
2022-11-18T00:13:00,pkn,1.20
2022-11-18T00:14:00,pkn,1.20
2022-11-18T00:16:00,pkn,7.20
2022-11-18T00:18:00,pkn,9.60
2022-11-18T00:20:00,pkn,10.80
2022-11-18T00:21:00,pkn,3.60
2022-11-18T00:22:00,pkn,6.00
2022-11-18T00:24:00,pkn,3.60
2022-11-18T00:26:00,pkn,2.40
2022-11-18T00:27:00,pkn,1.20
2022-11-18T00:28:00,pkn,1.20
2022-11-18T00:30:00,pkn,2.40
2022-11-18T00:32:00,pkn,2.40
2022-11-18T00:34:00,pkn,1.20
2022-11-18T00:36:00,pkn,2.40
2022-11-18T00:37:00,pkn,1.20
2022-11-18T00:39:00,pkn,1.20
2022-11-18T00:41:00,pkn,1.20
2022-11-18T00:42:00,pkn,1.20
2022-11-18T00:44:00,pkn,2.40
2022-11-18T00:45:00,pkn,1.20
2022-11-18T00:47:00,pkn,1.20
2022-11-18T00:49:00,pkn,1.20
2022-11-18T00:50:00,pkn,1.20
2022-11-18T00:52:00,pkn,2.40
2022-11-18T00:55:00,pkn,2.40
2022-11-18T00:57:00,pkn,2.40
2022-11-18T00:59:00,pkn,1.20
2022-11-18T01:00:00,pkn,3.60
2022-11-18T01:02:00,pkn,9.60
2022-11-18T01:04:00,pkn,10.80
2022-11-18T01:06:00,pkn,9.60
2022-11-18T01:07:00,pkn,4.80
2022-11-18T01:08:00,pkn,6.00
2022-11-18T01:09:00,pkn,3.60
2022-11-18T01:11:00,pkn,4.80
2022-11-18T01:13:00,pkn,2.40
2022-11-18T01:16:00,pkn,2.40
2022-11-18T01:18:00,pkn,1.20
2022-11-18T01:19:00,pkn,1.20
2022-11-18T01:20:00,pkn,1.20
2022-11-18T01:22:00,pkn,1.20
2022-11-18T01:23:00,pkn,1.20
2022-11-18T01:24:00,pkn,1.20
2022-11-18T01:26:00,pkn,1.20
2022-11-18T01:27:00,pkn,1.20
2022-11-18T01:28:00,pkn,1.20
2022-11-18T01:31:00,pkn,2.40
2022-11-18T01:33:00,pkn,1.20
2022-11-18T01:35:00,pkn,2.40
2022-11-18T01:37:00,pkn,1.20
2022-11-18T01:39:00,pkn,2.40
2022-11-18T01:41:00,pkn,1.20
2022-11-18T01:43:00,pkn,1.20
2022-11-18T01:45:00,pkn,2.40
2022-11-18T01:48:00,pkn,2.40
2022-11-18T01:50:00,pkn,1.20
2022-11-18T01:52:00,pkn,1.20
2022-11-18T01:53:00,pkn,1.20
2022-11-18T01:55:00,pkn,1.20
2022-11-18T01:56:00,pkn,3.60
2022-11-18T01:58:00,pkn,9.60
2022-11-18T02:00:00,pkn,10.80
2022-11-18T02:01:00,pkn,3.60
2022-11-18T02:03:00,pkn,10.80
2022-11-18T02:04:00,pkn,1.20
2022-11-18T02:06:00,pkn,2.40
2022-11-18T02:07:00,pkn,1.20
2022-11-18T02:09:00,pkn,1.20
2022-11-18T02:11:00,pkn,1.20
2022-11-18T02:13:00,pkn,2.40
2022-11-18T02:15:00,pkn,2.40
2022-11-18T02:17:00,pkn,1.20
2022-11-18T02:19:00,pkn,2.40
2022-11-18T02:21:00,pkn,1.20
2022-11-18T02:22:00,pkn,1.20
2022-11-18T02:23:00,pkn,1.20
2022-11-18T02:24:00,pkn,1.20
2022-11-18T02:26:00,pkn,1.20
2022-11-18T02:28:00,pkn,2.40
2022-11-18T02:30:00,pkn,1.20
2022-11-18T02:32:00,pkn,1.20
2022-11-18T02:33:00,pkn,1.20
2022-11-18T02:35:00,pkn,2.40
2022-11-18T02:37:00,pkn,1.20
2022-11-18T02:39:00,pkn,1.20
2022-11-18T02:41:00,pkn,1.20
2022-11-18T02:43:00,pkn,2.40
2022-11-18T02:44:00,pkn,1.20
2022-11-18T02:47:00,pkn,2.40
2022-11-18T02:49:00,pkn,1.20
2022-11-18T02:51:00,pkn,1.20
2022-11-18T02:53:00,pkn,1.20
2022-11-18T02:55:00,pkn,1.20
2022-11-18T02:56:00,pkn,1.20
2022-11-18T02:58:00,pkn,4.80
2022-11-18T03:00:00,pkn,9.60
2022-11-18T03:01:00,pkn,4.80
2022-11-18T03:03:00,pkn,9.60
2022-11-18T03:05:00,pkn,9.60
2022-11-18T03:06:00,pkn,3.60
2022-11-18T03:08:00,pkn,7.20
2022-11-18T03:09:00,pkn,1.20
2022-11-18T03:12:00,pkn,1.20
2022-11-18T03:14:00,pkn,1.20
2022-11-18T03:15:00,pkn,1.20
2022-11-18T03:17:00,pkn,1.20
2022-11-18T03:20:00,pkn,1.20
2022-11-18T03:21:00,pkn,1.20
2022-11-18T03:24:00,pkn,1.20
2022-11-18T03:25:00,pkn,1.20
2022-11-18T03:27:00,pkn,1.20
2022-11-18T03:29:00,pkn,1.20
2022-11-18T03:31:00,pkn,1.20
2022-11-18T03:33:00,pkn,1.20
2022-11-18T03:34:00,pkn,1.20
2022-11-18T03:36:00,pkn,1.20
2022-11-18T03:38:00,pkn,1.20
2022-11-18T03:40:00,pkn,1.20
2022-11-18T03:42:00,pkn,1.20
2022-11-18T03:44:00,pkn,1.20
2022-11-18T03:46:00,pkn,1.20
2022-11-18T03:48:00,pkn,1.20
2022-11-18T03:51:00,pkn,1.20
2022-11-18T03:52:00,pkn,1.20
2022-11-18T03:55:00,pkn,1.20
2022-11-18T03:57:00,pkn,2.40
2022-11-18T03:59:00,pkn,1.20
2022-11-18T04:00:00,pkn,1.20
2022-11-18T04:02:00,pkn,1.20
2022-11-18T04:05:00,pkn,1.20
2022-11-18T04:06:00,pkn,1.20
2022-11-18T04:09:00,pkn,1.20
2022-11-18T04:11:00,pkn,1.20
2022-11-18T04:12:00,pkn,1.20
2022-11-18T04:14:00,pkn,1.20
2022-11-18T04:15:00,pkn,1.20
2022-11-18T04:17:00,pkn,1.20
2022-11-18T04:20:00,pkn,1.20
2022-11-18T04:21:00,pkn,1.20
2022-11-18T04:24:00,pkn,1.20
2022-11-18T04:26:00,pkn,1.20
2022-11-18T04:28:00,pkn,1.20
2022-11-18T04:30:00,pkn,1.20
2022-11-18T04:32:00,pkn,6.00
2022-11-18T04:34:00,pkn,9.60
2022-11-18T04:36:00,pkn,9.60
2022-11-18T04:38:00,pkn,7.20
2022-11-18T04:39:00,pkn,1.20
2022-11-18T04:41:00,pkn,1.20
2022-11-18T04:44:00,pkn,2.40
2022-11-18T04:47:00,pkn,1.20
2022-11-18T04:49:00,pkn,1.20
2022-11-18T04:52:00,pkn,2.40
2022-11-18T04:56:00,pkn,1.20
2022-11-18T04:58:00,pkn,1.20
2022-11-18T05:00:00,pkn,1.20
2022-11-18T05:02:00,pkn,1.20
2022-11-18T05:03:00,pkn,1.20
2022-11-18T05:06:00,pkn,1.20
2022-11-18T05:07:00,pkn,1.20
2022-11-18T05:09:00,pkn,1.20
2022-11-18T05:12:00,pkn,1.20
2022-11-18T05:13:00,pkn,1.20
2022-11-18T05:15:00,pkn,1.20
2022-11-18T05:17:00,pkn,1.20
2022-11-18T05:19:00,pkn,1.20
2022-11-18T05:21:00,pkn,1.20
2022-11-18T05:22:00,pkn,1.20
2022-11-18T05:24:00,pkn,1.20
2022-11-18T05:27:00,pkn,1.20
2022-11-18T05:30:00,pkn,1.20
2022-11-18T05:32:00,pkn,2.40
2022-11-18T05:36:00,pkn,1.20
2022-11-18T05:38:00,pkn,1.20
2022-11-18T05:41:00,pkn,1.20
2022-11-18T05:43:00,pkn,1.20
2022-11-18T05:44:00,pkn,1.20
2022-11-18T05:46:00,pkn,1.20
2022-11-18T05:48:00,pkn,1.20
2022-11-18T05:49:00,pkn,1.20
2022-11-18T05:51:00,pkn,1.20
2022-11-18T05:52:00,pkn,1.20
2022-11-18T05:54:00,pkn,1.20
2022-11-18T05:56:00,pkn,1.20
2022-11-18T05:58:00,pkn,1.20
2022-11-18T06:00:00,pkn,1.20
2022-11-18T06:03:00,pkn,1.20
2022-11-18T06:05:00,pkn,1.20
2022-11-18T06:06:00,pkn,1.20
2022-11-18T06:09:00,pkn,1.20
2022-11-18T06:10:00,pkn,1.20
2022-11-18T06:12:00,pkn,1.20
2022-11-18T06:15:00,pkn,2.40
2022-11-18T06:18:00,pkn,2.40
2022-11-18T06:22:00,pkn,1.20
2022-11-18T06:23:00,pkn,1.20
2022-11-18T06:25:00,pkn,6.00
2022-11-18T06:27:00,pkn,9.60
2022-11-18T06:28:00,pkn,3.60
2022-11-18T06:30:00,pkn,9.60
2022-11-18T06:32:00,pkn,9.60
2022-11-18T06:33:00,pkn,1.20
2022-11-18T06:34:00,pkn,1.20
2022-11-18T06:36:00,pkn,1.20
2022-11-18T06:37:00,pkn,1.20
2022-11-18T06:39:00,pkn,1.20
2022-11-18T06:42:00,pkn,1.20
2022-11-18T06:43:00,pkn,1.20
2022-11-18T06:45:00,pkn,1.20
2022-11-18T06:47:00,pkn,1.20
2022-11-18T06:48:00,pkn,1.20
2022-11-18T06:50:00,pkn,1.20
2022-11-18T06:52:00,pkn,1.20
2022-11-18T06:53:00,pkn,1.20
2022-11-18T06:56:00,pkn,1.20
2022-11-18T06:58:00,pkn,1.20
2022-11-18T07:00:00,pkn,1.20
2022-11-18T07:03:00,pkn,1.20
2022-11-18T07:04:00,pkn,1.20
2022-11-18T07:06:00,pkn,1.20
2022-11-18T07:08:00,pkn,1.20
2022-11-18T07:09:00,pkn,1.20
2022-11-18T07:11:00,pkn,1.20
2022-11-18T07:15:00,pkn,1.20
2022-11-18T07:16:00,pkn,1.20
2022-11-18T07:18:00,pkn,1.20
2022-11-18T07:21:00,pkn,1.20
2022-11-18T07:22:00,pkn,1.20
2022-11-18T07:24:00,pkn,1.20
2022-11-18T07:26:00,pkn,1.20
2022-11-18T07:29:00,pkn,1.20
2022-11-18T07:30:00,pkn,1.20
2022-11-18T07:33:00,pkn,1.20
2022-11-18T07:35:00,pkn,1.20
2022-11-18T07:37:00,pkn,3.60
2022-11-18T07:38:00,pkn,1.20
2022-11-18T07:39:00,pkn,1.20
2022-11-18T07:41:00,pkn,1.20
2022-11-18T07:43:00,pkn,1.20
2022-11-18T07:45:00,pkn,2.40
2022-11-18T07:47:00,pkn,3.60
2022-11-18T07:49:00,pkn,9.60
2022-11-18T07:51:00,pkn,9.60
2022-11-18T07:52:00,pkn,4.80
2022-11-18T07:53:00,pkn,4.80
2022-11-18T07:55:00,pkn,10.80
2022-11-18T07:56:00,pkn,3.60
2022-11-18T07:58:00,pkn,10.80
2022-11-18T07:59:00,pkn,3.60
2022-11-18T08:00:00,pkn,4.80
2022-11-18T08:02:00,pkn,9.60
2022-11-18T08:03:00,pkn,4.80
2022-11-18T08:05:00,pkn,9.60
2022-11-18T08:07:00,pkn,9.60
2022-11-18T08:08:00,pkn,4.80
2022-11-18T08:10:00,pkn,4.80
2022-11-18T08:12:00,pkn,2.40
2022-11-18T08:14:00,pkn,1.20
2022-11-18T08:16:00,pkn,1.20
2022-11-18T08:18:00,pkn,2.40
2022-11-18T08:21:00,pkn,1.20
2022-11-18T08:22:00,pkn,1.20
2022-11-18T08:24:00,pkn,1.20
2022-11-18T08:25:00,pkn,1.20
2022-11-18T08:27:00,pkn,6.00
2022-11-18T08:29:00,pkn,8.40
2022-11-18T08:31:00,pkn,9.60
2022-11-18T08:33:00,pkn,9.60
2022-11-18T08:34:00,pkn,4.80
2022-11-18T08:36:00,pkn,10.80
2022-11-18T08:37:00,pkn,3.60
2022-11-18T08:38:00,pkn,4.80
2022-11-18T08:40:00,pkn,10.80
2022-11-18T08:42:00,pkn,9.60
2022-11-18T08:44:00,pkn,10.80
2022-11-18T08:47:00,pkn,2.40
2022-11-18T08:50:00,pkn,2.40
2022-11-18T08:51:00,pkn,1.20
2022-11-18T08:54:00,pkn,1.20
2022-11-18T08:55:00,pkn,1.20
2022-11-18T08:57:00,pkn,1.20
2022-11-18T08:58:00,pkn,1.20
2022-11-18T08:59:00,pkn,1.20
2022-11-18T09:00:00,pkn,1.20
2022-11-18T09:01:00,pkn,1.20
2022-11-18T09:03:00,pkn,3.60
2022-11-18T09:04:00,pkn,8.40
2022-11-18T09:06:00,pkn,12.00
2022-11-18T09:08:00,pkn,12.00
2022-11-18T09:10:00,pkn,12.00
2022-11-18T09:12:00,pkn,13.20
2022-11-18T09:13:00,pkn,7.20
2022-11-18T09:15:00,pkn,4.80
2022-11-18T09:16:00,pkn,2.40
2022-11-18T09:18:00,pkn,4.80
2022-11-18T09:20:00,pkn,3.60
2022-11-18T09:22:00,pkn,8.40
2022-11-18T09:23:00,pkn,2.40
2022-11-18T09:24:00,pkn,2.40
2022-11-18T09:26:00,pkn,4.80
2022-11-18T09:28:00,pkn,6.00
2022-11-18T09:29:00,pkn,1.20
2022-11-18T09:31:00,pkn,4.80
2022-11-18T09:32:00,pkn,2.40
2022-11-18T09:34:00,pkn,4.80
2022-11-18T09:35:00,pkn,1.20
2022-11-18T09:37:00,pkn,12.00
2022-11-18T09:39:00,pkn,13.20
2022-11-18T09:41:00,pkn,13.20
2022-11-18T09:43:00,pkn,12.00
2022-11-18T09:45:00,pkn,10.80
2022-11-18T09:46:00,pkn,2.40
2022-11-18T09:47:00,pkn,2.40
2022-11-18T09:49:00,pkn,4.80
2022-11-18T09:50:00,pkn,2.40
2022-11-18T09:51:00,pkn,2.40
2022-11-18T09:53:00,pkn,2.40
2022-11-18T09:55:00,pkn,2.40
2022-11-18T09:58:00,pkn,1.20
2022-11-18T10:00:00,pkn,4.80
2022-11-18T10:02:00,pkn,4.80
2022-11-18T10:04:00,pkn,2.40
2022-11-18T10:06:00,pkn,2.40
2022-11-18T10:08:00,pkn,1.20
2022-11-18T10:10:00,pkn,3.60
2022-11-18T10:11:00,pkn,3.60
2022-11-18T10:13:00,pkn,10.80
2022-11-18T10:14:00,pkn,3.60
2022-11-18T10:15:00,pkn,6.00
2022-11-18T10:17:00,pkn,7.20
2022-11-18T10:18:00,pkn,7.20
2022-11-18T10:20:00,pkn,7.20
2022-11-18T10:22:00,pkn,1.20
2022-11-18T10:24:00,pkn,1.20
2022-11-18T10:25:00,pkn,1.20
2022-11-18T10:26:00,pkn,1.20
2022-11-18T10:28:00,pkn,1.20
2022-11-18T10:30:00,pkn,2.40
2022-11-18T10:33:00,pkn,2.40
2022-11-18T10:35:00,pkn,1.20
2022-11-18T10:37:00,pkn,1.20
2022-11-18T10:39:00,pkn,2.40
2022-11-18T10:42:00,pkn,1.20
2022-11-18T10:44:00,pkn,2.40
2022-11-18T10:46:00,pkn,1.20
2022-11-18T10:47:00,pkn,1.20
2022-11-18T10:50:00,pkn,2.40
2022-11-18T10:53:00,pkn,6.00
2022-11-18T10:55:00,pkn,8.40
2022-11-18T10:57:00,pkn,9.60
2022-11-18T10:58:00,pkn,1.20
2022-11-18T10:59:00,pkn,9.60
2022-11-18T11:01:00,pkn,9.60
2022-11-18T11:03:00,pkn,9.60
2022-11-18T11:04:00,pkn,4.80
2022-11-18T11:06:00,pkn,8.40
2022-11-18T11:07:00,pkn,6.00
2022-11-18T11:09:00,pkn,8.40
2022-11-18T11:11:00,pkn,12.00
2022-11-18T11:13:00,pkn,3.60
2022-11-18T11:15:00,pkn,4.80
2022-11-18T11:16:00,pkn,2.40
2022-11-18T11:17:00,pkn,2.40
2022-11-18T11:19:00,pkn,4.80
2022-11-18T11:20:00,pkn,2.40
2022-11-18T11:22:00,pkn,4.80
2022-11-18T11:24:00,pkn,4.80
2022-11-18T11:26:00,pkn,3.60
2022-11-18T11:28:00,pkn,4.80
2022-11-18T11:30:00,pkn,8.40
2022-11-18T11:32:00,pkn,12.00
2022-11-18T11:33:00,pkn,3.60
2022-11-18T11:35:00,pkn,9.60
2022-11-18T11:37:00,pkn,9.60
2022-11-18T11:39:00,pkn,8.40
2022-11-18T11:41:00,pkn,6.00
2022-11-18T11:43:00,pkn,1.20
2022-11-18T11:44:00,pkn,1.20
2022-11-18T11:46:00,pkn,1.20
2022-11-18T11:48:00,pkn,1.20
2022-11-18T11:50:00,pkn,1.20
2022-11-18T11:53:00,pkn,1.20
2022-11-18T11:55:00,pkn,1.20
2022-11-18T11:57:00,pkn,1.20
2022-11-18T12:00:00,pkn,1.20
2022-11-18T12:01:00,pkn,1.20
2022-11-18T12:05:00,pkn,2.40
2022-11-18T12:06:00,pkn,2.40
2022-11-18T12:08:00,pkn,9.60
2022-11-18T12:09:00,pkn,3.60
2022-11-18T12:11:00,pkn,9.60
2022-11-18T12:13:00,pkn,9.60
2022-11-18T12:15:00,pkn,8.40
2022-11-18T12:16:00,pkn,4.80
2022-11-18T12:18:00,pkn,4.80
2022-11-18T12:20:00,pkn,1.20
2022-11-18T12:22:00,pkn,1.20
2022-11-18T12:25:00,pkn,1.20
2022-11-18T12:27:00,pkn,1.20
2022-11-18T12:30:00,pkn,1.20
2022-11-18T12:32:00,pkn,1.20
2022-11-18T12:35:00,pkn,1.20
2022-11-18T12:36:00,pkn,1.20
2022-11-18T12:37:00,pkn,1.20
2022-11-18T12:40:00,pkn,1.20
2022-11-18T12:42:00,pkn,1.20
2022-11-18T12:45:00,pkn,1.20
2022-11-18T12:47:00,pkn,1.20
2022-11-18T12:51:00,pkn,1.20
2022-11-18T12:53:00,pkn,1.20
2022-11-18T12:55:00,pkn,1.20
2022-11-18T12:57:00,pkn,6.00
2022-11-18T12:59:00,pkn,9.60
2022-11-18T13:01:00,pkn,9.60
2022-11-18T13:02:00,pkn,3.60
2022-11-18T13:04:00,pkn,7.20
2022-11-18T13:06:00,pkn,1.20
2022-11-18T13:08:00,pkn,1.20
2022-11-18T13:10:00,pkn,1.20
2022-11-18T13:12:00,pkn,1.20
2022-11-18T13:15:00,pkn,1.20
2022-11-18T13:17:00,pkn,1.20
2022-11-18T13:20:00,pkn,1.20
2022-11-18T13:24:00,pkn,1.20
2022-11-18T13:27:00,pkn,1.20
2022-11-18T13:30:00,pkn,1.20
2022-11-18T13:32:00,pkn,1.20
2022-11-18T13:34:00,pkn,1.20
2022-11-18T13:37:00,pkn,1.20
2022-11-18T13:39:00,pkn,1.20
2022-11-18T13:40:00,pkn,1.20
2022-11-18T13:42:00,pkn,1.20
2022-11-18T13:44:00,pkn,1.20
2022-11-18T13:46:00,pkn,1.20
2022-11-18T13:48:00,pkn,1.20
2022-11-18T13:50:00,pkn,2.40
2022-11-18T13:51:00,pkn,3.60
2022-11-18T13:53:00,pkn,9.60
2022-11-18T13:55:00,pkn,8.40
2022-11-18T13:56:00,pkn,4.80
2022-11-18T13:58:00,pkn,8.40
2022-11-18T14:00:00,pkn,1.20
2022-11-18T14:02:00,pkn,1.20
2022-11-18T14:04:00,pkn,1.20
2022-11-18T14:05:00,pkn,1.20
2022-11-18T14:08:00,pkn,1.20
2022-11-18T14:10:00,pkn,1.20
2022-11-18T14:12:00,pkn,1.20
2022-11-18T14:14:00,pkn,1.20
2022-11-18T14:16:00,pkn,1.20
2022-11-18T14:18:00,pkn,1.20
2022-11-18T14:22:00,pkn,1.20
2022-11-18T14:24:00,pkn,1.20
2022-11-18T14:26:00,pkn,1.20
2022-11-18T14:28:00,pkn,1.20
2022-11-18T14:32:00,pkn,1.20
2022-11-18T14:33:00,pkn,1.20
2022-11-18T14:36:00,pkn,1.20
2022-11-18T14:38:00,pkn,1.20
2022-11-18T14:41:00,pkn,1.20
2022-11-18T14:43:00,pkn,1.20
2022-11-18T14:47:00,pkn,4.80
2022-11-18T14:49:00,pkn,8.40
2022-11-18T14:51:00,pkn,9.60
2022-11-18T14:53:00,pkn,9.60
2022-11-18T14:54:00,pkn,3.60
2022-11-18T14:56:00,pkn,1.20
2022-11-18T14:57:00,pkn,1.20
2022-11-18T15:00:00,pkn,1.20
2022-11-18T15:03:00,pkn,1.20
2022-11-18T15:04:00,pkn,1.20
2022-11-18T15:07:00,pkn,1.20
2022-11-18T15:09:00,pkn,1.20
2022-11-18T15:12:00,pkn,1.20
2022-11-18T15:14:00,pkn,1.20
2022-11-18T15:16:00,pkn,1.20
2022-11-18T15:20:00,pkn,1.20
2022-11-18T15:22:00,pkn,1.20
2022-11-18T15:24:00,pkn,1.20
2022-11-18T15:26:00,pkn,1.20
2022-11-18T15:28:00,pkn,1.20
2022-11-18T15:30:00,pkn,1.20
2022-11-18T15:31:00,pkn,1.20
2022-11-18T15:33:00,pkn,1.20
2022-11-18T15:35:00,pkn,1.20
2022-11-18T15:37:00,pkn,1.20
2022-11-18T15:39:00,pkn,1.20
2022-11-18T15:41:00,pkn,1.20
2022-11-18T15:44:00,pkn,1.20
2022-11-18T15:46:00,pkn,1.20
2022-11-18T15:48:00,pkn,1.20
2022-11-18T15:50:00,pkn,2.40
2022-11-18T15:51:00,pkn,4.80
2022-11-18T15:53:00,pkn,9.60
2022-11-18T15:55:00,pkn,8.40
2022-11-18T15:57:00,pkn,8.40
2022-11-18T15:59:00,pkn,3.60
2022-11-18T16:01:00,pkn,1.20
2022-11-18T16:02:00,pkn,1.20
2022-11-18T16:04:00,pkn,1.20
2022-11-18T16:08:00,pkn,1.20
2022-11-18T16:09:00,pkn,1.20
2022-11-18T16:13:00,pkn,1.20
2022-11-18T16:15:00,pkn,1.20
2022-11-18T16:19:00,pkn,1.20
2022-11-18T16:20:00,pkn,1.20
2022-11-18T16:22:00,pkn,1.20
2022-11-18T16:24:00,pkn,1.20
2022-11-18T16:26:00,pkn,1.20
2022-11-18T16:29:00,pkn,1.20
2022-11-18T16:30:00,pkn,1.20
2022-11-18T16:32:00,pkn,1.20
2022-11-18T16:36:00,pkn,1.20
2022-11-18T16:38:00,pkn,1.20
2022-11-18T16:39:00,pkn,1.20
2022-11-18T16:41:00,pkn,1.20
2022-11-18T16:43:00,pkn,1.20
2022-11-18T16:45:00,pkn,1.20
2022-11-18T16:47:00,pkn,1.20
2022-11-18T16:50:00,pkn,1.20
2022-11-18T16:52:00,pkn,1.20
2022-11-18T16:55:00,pkn,1.20
2022-11-18T16:57:00,pkn,1.20
2022-11-18T16:59:00,pkn,1.20
2022-11-18T17:02:00,pkn,1.20
2022-11-18T17:04:00,pkn,1.20
2022-11-18T17:05:00,pkn,1.20
2022-11-18T17:07:00,pkn,1.20
2022-11-18T17:09:00,pkn,1.20
2022-11-18T17:10:00,pkn,1.20
2022-11-18T17:12:00,pkn,1.20
2022-11-18T17:13:00,pkn,1.20
2022-11-18T17:16:00,pkn,2.40
2022-11-18T17:18:00,pkn,7.20
2022-11-18T17:20:00,pkn,9.60
2022-11-18T17:22:00,pkn,8.40
2022-11-18T17:24:00,pkn,9.60
2022-11-18T17:25:00,pkn,1.20
2022-11-18T17:27:00,pkn,1.20
2022-11-18T17:30:00,pkn,1.20
2022-11-18T17:32:00,pkn,2.40
2022-11-18T17:33:00,pkn,1.20
2022-11-18T17:35:00,pkn,1.20
2022-11-18T17:37:00,pkn,1.20
2022-11-18T17:38:00,pkn,1.20
2022-11-18T17:40:00,pkn,1.20
2022-11-18T17:41:00,pkn,1.20
2022-11-18T17:43:00,pkn,1.20
2022-11-18T17:45:00,pkn,1.20
2022-11-18T17:47:00,pkn,2.40
2022-11-18T17:49:00,pkn,1.20
2022-11-18T17:51:00,pkn,2.40
2022-11-18T17:54:00,pkn,2.40
2022-11-18T17:56:00,pkn,1.20
2022-11-18T17:57:00,pkn,1.20
2022-11-18T17:58:00,pkn,1.20
2022-11-18T18:00:00,pkn,2.40
2022-11-18T18:02:00,pkn,1.20
2022-11-18T18:04:00,pkn,6.00
2022-11-18T18:06:00,pkn,9.60
2022-11-18T18:08:00,pkn,10.80
2022-11-18T18:09:00,pkn,3.60
2022-11-18T18:11:00,pkn,9.60
2022-11-18T18:13:00,pkn,10.80
2022-11-18T18:15:00,pkn,8.40
2022-11-18T18:16:00,pkn,4.80
2022-11-18T18:18:00,pkn,6.00
2022-11-18T18:20:00,pkn,1.20
2022-11-18T18:22:00,pkn,1.20
2022-11-18T18:24:00,pkn,2.40
2022-11-18T18:26:00,pkn,1.20
2022-11-18T18:28:00,pkn,1.20
2022-11-18T18:30:00,pkn,2.40
2022-11-18T18:32:00,pkn,1.20
2022-11-18T18:34:00,pkn,1.20
2022-11-18T18:36:00,pkn,1.20
2022-11-18T18:38:00,pkn,1.20
2022-11-18T18:39:00,pkn,1.20
2022-11-18T18:41:00,pkn,1.20
2022-11-18T18:43:00,pkn,1.20
2022-11-18T18:44:00,pkn,2.40
2022-11-18T18:46:00,pkn,9.60
2022-11-18T18:48:00,pkn,10.80
2022-11-18T18:49:00,pkn,3.60
2022-11-18T18:51:00,pkn,10.80
2022-11-18T18:52:00,pkn,3.60
2022-11-18T18:53:00,pkn,6.00
2022-11-18T18:55:00,pkn,1.20
2022-11-18T18:57:00,pkn,1.20
2022-11-18T18:58:00,pkn,1.20
2022-11-18T19:00:00,pkn,1.20
2022-11-18T19:02:00,pkn,2.40
2022-11-18T19:04:00,pkn,1.20
2022-11-18T19:06:00,pkn,1.20
2022-11-18T19:07:00,pkn,1.20
2022-11-18T19:09:00,pkn,1.20
2022-11-18T19:11:00,pkn,2.40
2022-11-18T19:14:00,pkn,2.40
2022-11-18T19:17:00,pkn,2.40
2022-11-18T19:19:00,pkn,1.20
2022-11-18T19:22:00,pkn,2.40
2022-11-18T19:23:00,pkn,1.20
2022-11-18T19:25:00,pkn,1.20
2022-11-18T19:27:00,pkn,1.20
2022-11-18T19:28:00,pkn,1.20
2022-11-18T19:30:00,pkn,2.40
2022-11-18T19:33:00,pkn,1.20
2022-11-18T19:34:00,pkn,1.20
2022-11-18T19:35:00,pkn,1.20
2022-11-18T19:37:00,pkn,1.20
2022-11-18T19:39:00,pkn,1.20
2022-11-18T19:40:00,pkn,1.20
2022-11-18T19:42:00,pkn,1.20
2022-11-18T19:44:00,pkn,1.20
2022-11-18T19:45:00,pkn,3.60
2022-11-18T19:46:00,pkn,4.80
2022-11-18T19:48:00,pkn,10.80
2022-11-18T19:50:00,pkn,8.40
2022-11-18T19:51:00,pkn,6.00
2022-11-18T19:53:00,pkn,4.80
2022-11-18T19:54:00,pkn,1.20
2022-11-18T19:56:00,pkn,1.20
2022-11-18T19:58:00,pkn,2.40
2022-11-18T20:01:00,pkn,2.40
2022-11-18T20:03:00,pkn,1.20
2022-11-18T20:05:00,pkn,1.20
2022-11-18T20:07:00,pkn,2.40
2022-11-18T20:09:00,pkn,1.20
2022-11-18T20:10:00,pkn,1.20
2022-11-18T20:12:00,pkn,1.20
2022-11-18T20:13:00,pkn,1.20
2022-11-18T20:15:00,pkn,2.40
2022-11-18T20:17:00,pkn,1.20
2022-11-18T20:19:00,pkn,2.40
2022-11-18T20:21:00,pkn,1.20
2022-11-18T20:23:00,pkn,2.40
2022-11-18T20:24:00,pkn,1.20
2022-11-18T20:27:00,pkn,1.20
2022-11-18T20:28:00,pkn,1.20
2022-11-18T20:30:00,pkn,2.40
2022-11-18T20:33:00,pkn,2.40
2022-11-18T20:36:00,pkn,2.40
2022-11-18T20:38:00,pkn,1.20
2022-11-18T20:40:00,pkn,1.20
2022-11-18T20:42:00,pkn,2.40
2022-11-18T20:44:00,pkn,1.20
2022-11-18T20:46:00,pkn,2.40
2022-11-18T20:48:00,pkn,1.20
2022-11-18T20:49:00,pkn,1.20
2022-11-18T20:51:00,pkn,1.20
2022-11-18T20:53:00,pkn,1.20
2022-11-18T20:55:00,pkn,2.40
2022-11-18T20:58:00,pkn,1.20
2022-11-18T21:00:00,pkn,2.40
2022-11-18T21:03:00,pkn,3.60
2022-11-18T21:04:00,pkn,3.60
2022-11-18T21:05:00,pkn,4.80
2022-11-18T21:07:00,pkn,9.60
2022-11-18T21:09:00,pkn,10.80
2022-11-18T21:11:00,pkn,6.00
2022-11-18T21:13:00,pkn,2.40
2022-11-18T21:16:00,pkn,2.40
2022-11-18T21:18:00,pkn,1.20
2022-11-18T21:20:00,pkn,1.20
2022-11-18T21:21:00,pkn,1.20
2022-11-18T21:22:00,pkn,1.20
2022-11-18T21:24:00,pkn,1.20
2022-11-18T21:25:00,pkn,1.20
2022-11-18T21:26:00,pkn,1.20
2022-11-18T21:28:00,pkn,1.20
2022-11-18T21:29:00,pkn,1.20
2022-11-18T21:31:00,pkn,1.20
2022-11-18T21:32:00,pkn,1.20
2022-11-18T21:34:00,pkn,2.40
2022-11-18T21:37:00,pkn,2.40
2022-11-18T21:40:00,pkn,2.40
2022-11-18T21:42:00,pkn,1.20
2022-11-18T21:43:00,pkn,1.20
2022-11-18T21:45:00,pkn,2.40
2022-11-18T21:47:00,pkn,1.20
2022-11-18T21:48:00,pkn,1.20
2022-11-18T21:50:00,pkn,1.20
2022-11-18T21:52:00,pkn,2.40
2022-11-18T21:54:00,pkn,2.40
2022-11-18T21:56:00,pkn,6.00
2022-11-18T21:57:00,pkn,4.80
2022-11-18T21:59:00,pkn,9.60
2022-11-18T22:01:00,pkn,10.80
2022-11-18T22:02:00,pkn,3.60
2022-11-18T22:03:00,pkn,6.00
2022-11-18T22:05:00,pkn,8.40
2022-11-18T22:06:00,pkn,1.20
2022-11-18T22:08:00,pkn,1.20
2022-11-18T22:09:00,pkn,1.20
2022-11-18T22:10:00,pkn,1.20
2022-11-18T22:11:00,pkn,1.20
2022-11-18T22:13:00,pkn,1.20
2022-11-18T22:14:00,pkn,1.20
2022-11-18T22:16:00,pkn,6.00
2022-11-18T22:17:00,pkn,4.80
2022-11-18T22:19:00,pkn,9.60
2022-11-18T22:20:00,pkn,4.80
2022-11-18T22:21:00,pkn,6.00
2022-11-18T22:23:00,pkn,9.60
2022-11-18T22:24:00,pkn,4.80
2022-11-18T22:26:00,pkn,9.60
2022-11-18T22:27:00,pkn,4.80
2022-11-18T22:28:00,pkn,6.00
2022-11-18T22:29:00,pkn,3.60
2022-11-18T22:31:00,pkn,10.80
2022-11-18T22:32:00,pkn,4.80
2022-11-18T22:34:00,pkn,9.60
2022-11-18T22:36:00,pkn,8.40
2022-11-18T22:38:00,pkn,1.20
2022-11-18T22:40:00,pkn,2.40
2022-11-18T22:41:00,pkn,1.20
2022-11-18T22:43:00,pkn,1.20
2022-11-18T22:44:00,pkn,1.20
2022-11-18T22:46:00,pkn,2.40
2022-11-18T22:48:00,pkn,1.20
2022-11-18T22:50:00,pkn,2.40
2022-11-18T22:52:00,pkn,2.40
2022-11-18T22:54:00,pkn,1.20
2022-11-18T22:56:00,pkn,7.20
2022-11-18T22:58:00,pkn,9.60
2022-11-18T22:59:00,pkn,4.80
2022-11-18T23:00:00,pkn,6.00
2022-11-18T23:02:00,pkn,9.60
2022-11-18T23:03:00,pkn,1.20
2022-11-18T23:04:00,pkn,9.60
2022-11-18T23:06:00,pkn,4.80
2022-11-18T23:08:00,pkn,1.20
2022-11-18T23:10:00,pkn,2.40
2022-11-18T23:12:00,pkn,1.20
2022-11-18T23:13:00,pkn,1.20
2022-11-18T23:15:00,pkn,1.20
2022-11-18T23:17:00,pkn,2.40
2022-11-18T23:19:00,pkn,1.20
2022-11-18T23:20:00,pkn,3.60
2022-11-18T23:22:00,pkn,8.40
2022-11-18T23:23:00,pkn,6.00
2022-11-18T23:25:00,pkn,9.60
2022-11-18T23:26:00,pkn,4.80
2022-11-18T23:27:00,pkn,6.00
2022-11-18T23:29:00,pkn,9.60
2022-11-18T23:31:00,pkn,8.40
2022-11-18T23:33:00,pkn,2.40
2022-11-18T23:36:00,pkn,2.40
2022-11-18T23:38:00,pkn,1.20
2022-11-18T23:40:00,pkn,1.20
2022-11-18T23:42:00,pkn,3.60
2022-11-18T23:43:00,pkn,3.60
2022-11-18T23:44:00,pkn,4.80
2022-11-18T23:46:00,pkn,9.60
2022-11-18T23:48:00,pkn,10.80
2022-11-18T23:49:00,pkn,4.80
2022-11-18T23:51:00,pkn,9.60
2022-11-18T23:53:00,pkn,9.60
2022-11-18T23:54:00,pkn,6.00
2022-11-18T23:56:00,pkn,9.60
2022-11-18T23:58:00,pkn,9.60
